When you browse on this site, cookies collect data to enhance your experience and personalize the content and advertising you see.
Visit our Privacy Policy to learn more. By continuing to use the site, you agree to this use of cookies and data.
  • In Lithuania
  • List of Countries
  • For 7 days
  • Water Temperature
  • Weather Map
  • Weather Widgets
  • user-avatar
    Login

    Hourly Weather Goiania

    Today, 22 February, Saturday

    Time Temperature Precipitation Wind Pressure Humidity
    00:00 +21°C° 0 mm 0 mps 698 mmHg 91%
    01:00 +21°C° 0.1 mm 0 mps 698 mmHg 91%
    02:00 +21°C° 0.1 mm 0 mps 698 mmHg 91%
    03:00 +22°C° 0 mm 1 mps 698 mmHg 91%
    04:00 +20°C° 0.1 mm 0 mps 698 mmHg 91%
    05:00 +20°C° 0.1 mm 0 mps 698 mmHg 92%
    06:00 +20°C° 0.1 mm 0 mps 698 mmHg 92%
    07:00 +21°C° 0.4 mm 0 mps 699 mmHg 92%
    08:00 +24°C° 0.4 mm 1 mps 700 mmHg 91%
    09:00 +25°C° 0 mm 1 mps 700 mmHg 89%
    10:00 +26°C° 0 mm 2 mps 700 mmHg 83%
    11:00 +27°C° 0 mm 2 mps 700 mmHg 76%
    12:00 +28°C° 0 mm 3 mps 700 mmHg 70%
    13:00 +29°C° 0.1 mm 3 mps 699 mmHg 70%
    14:00 +29°C° 0.1 mm 3 mps 698 mmHg 70%
    15:00 +29°C° 0.1 mm 3 mps 698 mmHg 70%
    16:00 +29°C° 0.1 mm 2 mps 698 mmHg 74%
    17:00 +28°C° 0.1 mm 2 mps 698 mmHg 78%
    18:00 +27°C° 0.1 mm 1 mps 697 mmHg 82%
    19:00 +26°C° 0.3 mm 1 mps 698 mmHg 84%
    20:00 +25°C° 0.3 mm 1 mps 698 mmHg 87%
    21:00 +22°C° 0.3 mm 0 mps 699 mmHg 89%
    22:00 +22°C° 0.2 mm 0 mps 699 mmHg 90%
    23:00 +21°C° 0.2 mm 0 mps 699 mmHg 91%

    Tomorrow, 23 February, Sunday

    Time Temperature Precipitation Wind Pressure Humidity
    00:00 +21°C° 0.2 mm 0 mps 699 mmHg 91%
    01:00 +21°C° 0.3 mm 0 mps 699 mmHg 92%
    02:00 +21°C° 0.3 mm 0 mps 698 mmHg 92%
    03:00 +23°C° 0.3 mm 1 mps 698 mmHg 93%
    04:00 +20°C° 0 mm 0 mps 698 mmHg 93%
    05:00 +20°C° 0 mm 0 mps 698 mmHg 93%
    06:00 +20°C° 0 mm 0 mps 698 mmHg 93%
    07:00 +22°C° 0 mm 0 mps 699 mmHg 89%
    08:00 +23°C° 0 mm 0 mps 700 mmHg 85%
    09:00 +25°C° 0 mm 0 mps 700 mmHg 81%
    10:00 +26°C° 0.4 mm 0 mps 700 mmHg 77%
    11:00 +30°C° 0.4 mm 1 mps 700 mmHg 72%
    12:00 +31°C° 0.4 mm 1 mps 700 mmHg 68%
    13:00 +31°C° 0.7 mm 1 mps 699 mmHg 68%
    14:00 +31°C° 0.7 mm 1 mps 698 mmHg 68%
    15:00 +31°C° 0.7 mm 1 mps 697 mmHg 69%
    16:00 +30°C° 1 mm 1 mps 697 mmHg 74%
    17:00 +29°C° 1 mm 1 mps 697 mmHg 79%
    18:00 +28°C° 1 mm 1 mps 696 mmHg 85%
    19:00 +27°C° 0.8 mm 1 mps 697 mmHg 86%
    20:00 +24°C° 0.8 mm 0 mps 697 mmHg 88%
    21:00 +23°C° 0.8 mm 0 mps 697 mmHg 89%
    22:00 +23°C° 1.2 mm 0 mps 698 mmHg 90%
    23:00 +22°C° 1.2 mm 0 mps 698 mmHg 90%

    Day after tomorrow, 24 February, Monday

    Time Temperature Precipitation Wind Pressure Humidity
    00:00 +22°C° 1.2 mm 0 mps 698 mmHg 90%
    01:00 +22°C° 2.1 mm 0 mps 698 mmHg 91%
    02:00 +22°C° 2.1 mm 0 mps 697 mmHg 92%
    03:00 +23°C° 2.1 mm 1 mps 697 mmHg 94%
    04:00 +23°C° 0.6 mm 1 mps 697 mmHg 93%
    05:00 +21°C° 0.6 mm 0 mps 697 mmHg 93%
    06:00 +21°C° 0.6 mm 0 mps 697 mmHg 93%
    07:00 +22°C° 0.1 mm 0 mps 698 mmHg 91%
    08:00 +23°C° 0.1 mm 0 mps 699 mmHg 90%
    09:00 +23°C° 0.1 mm 0 mps 699 mmHg 89%
    10:00 +25°C° 0.6 mm 0 mps 699 mmHg 82%
    11:00 +27°C° 0.6 mm 0 mps 699 mmHg 76%
    12:00 +29°C° 0.6 mm 0 mps 699 mmHg 69%
    13:00 +29°C° 0.3 mm 0 mps 699 mmHg 68%
    14:00 +31°C° 0.3 mm 1 mps 698 mmHg 67%
    15:00 +31°C° 0.3 mm 1 mps 697 mmHg 65%
    16:00 +30°C° 1.5 mm 1 mps 697 mmHg 72%
    17:00 +29°C° 1.5 mm 1 mps 697 mmHg 79%
    18:00 +28°C° 1.5 mm 1 mps 696 mmHg 86%
    19:00 +27°C° 2.3 mm 1 mps 697 mmHg 88%
    20:00 +26°C° 2.3 mm 1 mps 697 mmHg 89%
    21:00 +25°C° 2.3 mm 2 mps 697 mmHg 91%
    22:00 +24°C° 1.3 mm 1 mps 697 mmHg 92%
    23:00 +24°C° 1.3 mm 1 mps 698 mmHg 93%

    25 February, Tuesday

    Time Temperature Precipitation Wind Pressure Humidity
    00:00 +23°C° 1.3 mm 1 mps 698 mmHg 94%
    01:00 +23°C° 0.8 mm 1 mps 698 mmHg 94%
    02:00 +23°C° 0.8 mm 1 mps 697 mmHg 94%
    03:00 +23°C° 0.8 mm 1 mps 697 mmHg 94%
    04:00 +23°C° 0.4 mm 1 mps 697 mmHg 94%
    05:00 +23°C° 0.4 mm 1 mps 697 mmHg 93%
    06:00 +21°C° 0.4 mm 0 mps 698 mmHg 92%
    07:00 +21°C° 0.7 mm 0 mps 698 mmHg 93%
    08:00 +21°C° 0.7 mm 0 mps 699 mmHg 94%
    09:00 +21°C° 0.7 mm 0 mps 699 mmHg 94%
    10:00 +22°C° 1.3 mm 0 mps 699 mmHg 94%
    11:00 +22°C° 1.3 mm 0 mps 699 mmHg 94%
    12:00 +22°C° 1.3 mm 0 mps 699 mmHg 93%
    13:00 +22°C° 1.1 mm 0 mps 699 mmHg 94%
    14:00 +24°C° 1.1 mm 1 mps 698 mmHg 94%
    15:00 +24°C° 1.1 mm 1 mps 697 mmHg 94%
    16:00 +24°C° 0.2 mm 1 mps 697 mmHg 94%
    17:00 +24°C° 0.2 mm 1 mps 697 mmHg 94%
    18:00 +24°C° 0.2 mm 1 mps 696 mmHg 94%
    19:00 +24°C° 0 mm 1 mps 696 mmHg 93%
    20:00 +23°C° 0 mm 1 mps 697 mmHg 93%
    21:00 +23°C° 0 mm 1 mps 697 mmHg 93%
    22:00 +23°C° 0 mm 1 mps 697 mmHg 93%
    23:00 +22°C° 0 mm 1 mps 697 mmHg 93%

    26 February, Wednesday

    Time Temperature Precipitation Wind Pressure Humidity
    00:00 +22°C° 0 mm 1 mps 698 mmHg 93%
    01:00 +22°C° 0 mm 1 mps 697 mmHg 93%
    02:00 +22°C° 0 mm 1 mps 697 mmHg 93%
    03:00 +22°C° 0 mm 1 mps 697 mmHg 94%
    04:00 +22°C° 0 mm 1 mps 697 mmHg 94%
    05:00 +22°C° 0 mm 1 mps 697 mmHg 94%
    06:00 +22°C° 0 mm 1 mps 696 mmHg 94%
    07:00 +23°C° 0 mm 1 mps 697 mmHg 92%
    08:00 +24°C° 0 mm 1 mps 698 mmHg 89%
    09:00 +25°C° 0 mm 2 mps 698 mmHg 87%
    10:00 +27°C° 1.1 mm 2 mps 698 mmHg 85%
    11:00 +28°C° 1.1 mm 2 mps 698 mmHg 82%
    12:00 +29°C° 1.1 mm 2 mps 698 mmHg 79%
    13:00 +29°C° 1.5 mm 2 mps 697 mmHg 78%
    14:00 +29°C° 1.5 mm 3 mps 696 mmHg 78%
    15:00 +30°C° 1.5 mm 3 mps 696 mmHg 77%
    16:00 +29°C° 1.1 mm 2 mps 696 mmHg 80%
    17:00 +28°C° 1.1 mm 2 mps 695 mmHg 83%
    18:00 +27°C° 1.1 mm 2 mps 695 mmHg 85%
    19:00 +26°C° 0.2 mm 1 mps 695 mmHg 86%
    20:00 +26°C° 0.2 mm 1 mps 696 mmHg 86%
    21:00 +25°C° 0.2 mm 1 mps 696 mmHg 86%
    22:00 +25°C° 0.5 mm 1 mps 697 mmHg 87%
    23:00 +24°C° 0.5 mm 1 mps 697 mmHg 88%

    27 February, Thursday

    Time Temperature Precipitation Wind Pressure Humidity
    00:00 +24°C° 0.5 mm 1 mps 697 mmHg 89%
    01:00 +24°C° 1.7 mm 1 mps 697 mmHg 91%
    02:00 +24°C° 1.7 mm 1 mps 696 mmHg 93%
    03:00 +23°C° 1.7 mm 1 mps 696 mmHg 95%
    04:00 +23°C° 0.8 mm 1 mps 696 mmHg 95%
    05:00 +23°C° 0.8 mm 1 mps 696 mmHg 95%
    06:00 +23°C° 0.8 mm 1 mps 696 mmHg 95%
    07:00 +23°C° 0.3 mm 1 mps 696 mmHg 95%
    08:00 +23°C° 0.3 mm 1 mps 697 mmHg 95%
    09:00 +24°C° 0.3 mm 2 mps 697 mmHg 94%
    10:00 +24°C° 1.3 mm 2 mps 697 mmHg 95%
    11:00 +24°C° 1.3 mm 2 mps 697 mmHg 95%
    12:00 +24°C° 1.3 mm 2 mps 697 mmHg 95%
    13:00 +24°C° 0.1 mm 2 mps 696 mmHg 92%
    14:00 +25°C° 0.1 mm 2 mps 696 mmHg 90%
    15:00 +26°C° 0.1 mm 1 mps 695 mmHg 87%
    16:00 +26°C° 0.2 mm 1 mps 695 mmHg 87%
    17:00 +26°C° 0.2 mm 1 mps 695 mmHg 88%
    18:00 +26°C° 0.2 mm 1 mps 695 mmHg 89%
    19:00 +25°C° 1.1 mm 1 mps 695 mmHg 90%
    20:00 +23°C° 1.1 mm 0 mps 696 mmHg 91%
    21:00 +22°C° 1.1 mm 0 mps 696 mmHg 92%
    22:00 +22°C° 0.6 mm 0 mps 697 mmHg 92%
    23:00 +24°C° 0.6 mm 1 mps 697 mmHg 93%
    Show more